DMSP 5D-2 F13 DEB

Satellite information

Favourite Embed

Satellite Type and Status

DEBRISIN ORBIT

Key statistics

Satellite DMSP 5D-2 F13 DEB at a glance.

Uptime

11063

Days in orbit

Revolutions

≈ 14.3

Per day

Orbit

SSO

Sun Synchronous Orbit

Inclination

98.9

Latest

Satellite identification and parameters

Extended collection of information and parameters for DMSP 5D-2 F13 DEB.

Object identification

Identified? True

Debris? True

Object name: DMSP 5D-2 F13 DEB

International designator: 1995-015CM

Object number (NORAD): 40498

Object ID (CCSDS): 40498

Country: UNITED STATES OF AMERICA (US)

Current information (Y/N): Y

RCS size: SMALL

Orbital parameters

Period: 100.804 minutes

Inclination: 98.9059 deg

SMA: 7174.823 km

Apoapsis: 817.877 km

Periapsis: 775.499 km

RAAN: 208.436 deg

Eccentricy: 0.0029533

Argument of periapsis: 176.6946 deg

Mean anomaly: 183.4435 deg

Mean motion: 14.28518854 rev/day

Mean motion (dot): 0.00003294 rev/day2

B* drag term: 0.0013263 1/REarth

Two-line elements (TLE)

Creation date: July 5, 2025, 10:56 p.m.

Reference frame: TEME

Reference center: EARTH

Epoch: July 5, 2025, 9:05 p.m. UTC

TLE line 0: 0 DMSP 5D-2 F13 DEB

TLE line 1: 1 40498U 95015CM 25186.87902225 .00003294 00000-0 13263-2 0 9997

TLE line 2: 2 40498 98.9059 208.4360 0029533 176.6946 183.4435 14.28518854534311

Live tracking on map

Real-time ground track for satellite DMSP 5D-2 F13 DEB.

In-orbit conjunctions

A list of the most updated potential collisions computed for object DMSP 5D-2 F13 DEB.

Target Orbit TCA Probability of collision Miss distance Type
THOR BURNER 2 R/B SSO 2025-06-15 19:31:28 0.001770784 31.0 (m) ROCKET BODY
CZ-6A DEB LEO 2025-03-03 23:25:35 0.0008479174 144.0 (m) DEBRIS
METEOR 1-17 DEB LEO 2024-11-09 03:01:49 0.0001684222 452.0 (m) DEBRIS
COSMOS 2251 DEB LEO 2024-08-30 14:20:00 0.0001187762 123.0 (m) DEBRIS

Associated space launch

Military meteorological satellite

DMSP 5D-2 F13 DEB was lifted into orbit during the mission ‘Atlas E | DMSP-5D2 F13’, on board a Atlas E space rocket.

The launch took place on March 24, 1995, 2:05 p.m. from Space Launch Complex 3W.

For more information about the launch, click the button.

Launch to space Atlas E | DMSP-5D2 F13
Atlas E | DMSP-5D2 F13

Agency: N/A

Status: Launch Successful

Launch date: March 24, 1995, 2:05 p.m. UTC

Rocket: Atlas E

Launch pad: Space Launch Complex 3W

Location: Vandenberg SFB, CA, USA

...

Latest news about this satellite

There are no fresh news available about this satellite. Check back as we update our databases every day.


Newsletter sign-up

Weekly statistics, charts and insights to help you stay on top of the space industry.